Year,Month,Day,Hour,Minute,Value (Times are PST for temperature in C)
2009,12,21,00,00,6.90
2009,12,21,00,01,6.90
2009,12,21,00,02,6.90
2009,12,21,00,03,6.90
2009,12,21,00,04,6.90
2009,12,21,00,05,6.90
2009,12,21,00,06,6.90
2009,12,21,00,07,6.90
2009,12,21,00,08,6.90
2009,12,21,00,09,6.90
2009,12,21,00,10,6.90
2009,12,21,00,11,6.90
2009,12,21,00,12,6.90
2009,12,21,00,13,6.90
2009,12,21,00,14,6.90
2009,12,21,00,15,6.90
2009,12,21,00,16,6.90
2009,12,21,00,17,6.90
2009,12,21,00,18,6.90
2009,12,21,00,19,6.90
2009,12,21,00,20,6.90
2009,12,21,00,21,6.90
2009,12,21,00,22,6.90
2009,12,21,00,23,6.90
2009,12,21,00,24,6.90
2009,12,21,00,25,6.90
2009,12,21,00,26,6.80
2009,12,21,00,27,6.80
2009,12,21,00,28,6.80
2009,12,21,00,29,6.80
2009,12,21,00,30,6.80
2009,12,21,00,31,6.80
2009,12,21,00,32,6.80
2009,12,21,00,33,6.80
2009,12,21,00,34,6.80
2009,12,21,00,35,6.80
2009,12,21,00,36,6.80
2009,12,21,00,37,6.80
2009,12,21,00,38,6.80
2009,12,21,00,39,6.80
2009,12,21,00,40,6.80
2009,12,21,00,41,6.80
2009,12,21,00,42,6.80
2009,12,21,00,43,6.80
2009,12,21,00,44,6.80
2009,12,21,00,45,6.80
2009,12,21,00,46,6.80
2009,12,21,00,47,6.80
2009,12,21,00,48,6.80
2009,12,21,00,49,6.80
2009,12,21,00,50,6.80
2009,12,21,00,51,6.80
2009,12,21,00,52,6.80
2009,12,21,00,53,6.80
2009,12,21,00,54,6.80
2009,12,21,00,55,6.80
2009,12,21,00,56,6.80
2009,12,21,00,57,6.80
2009,12,21,00,58,6.80
2009,12,21,00,59,6.80
2009,12,21,01,00,6.80
2009,12,21,01,01,6.80
2009,12,21,01,02,6.80
2009,12,21,01,03,6.80
2009,12,21,01,04,6.80
2009,12,21,01,05,6.80
2009,12,21,01,06,6.80
2009,12,21,01,07,6.80
2009,12,21,01,08,6.80
2009,12,21,01,09,6.80
2009,12,21,01,10,6.80
2009,12,21,01,11,6.80
2009,12,21,01,12,6.80
2009,12,21,01,13,6.80
2009,12,21,01,14,6.80
2009,12,21,01,15,6.80
2009,12,21,01,16,6.80
2009,12,21,01,17,6.80
2009,12,21,01,18,6.80
2009,12,21,01,19,6.80
2009,12,21,01,20,6.80
2009,12,21,01,21,6.80
2009,12,21,01,22,6.80
2009,12,21,01,23,6.80
2009,12,21,01,24,6.80
2009,12,21,01,25,6.80
2009,12,21,01,26,6.80
2009,12,21,01,27,6.80
2009,12,21,01,28,6.90
2009,12,21,01,29,6.90
2009,12,21,01,30,6.90
2009,12,21,01,31,6.90
2009,12,21,01,32,6.90
2009,12,21,01,33,7.00
2009,12,21,01,34,7.00
2009,12,21,01,35,7.00
2009,12,21,01,36,7.00
2009,12,21,01,37,7.00
2009,12,21,01,38,7.00
2009,12,21,01,39,7.00
2009,12,21,01,40,7.00
2009,12,21,01,41,7.00
2009,12,21,01,42,7.00
2009,12,21,01,43,6.90
2009,12,21,01,44,6.90
2009,12,21,01,45,6.90
2009,12,21,01,46,6.90
2009,12,21,01,47,6.90
2009,12,21,01,48,6.90
2009,12,21,01,49,7.00
2009,12,21,01,50,7.00
2009,12,21,01,51,7.00
2009,12,21,01,52,7.10
2009,12,21,01,53,7.10
2009,12,21,01,54,7.10
2009,12,21,01,55,7.10
2009,12,21,01,56,7.10
2009,12,21,01,57,7.10
2009,12,21,01,58,7.00
2009,12,21,01,59,7.00
2009,12,21,02,00,7.00
2009,12,21,02,01,6.90
2009,12,21,02,02,6.90
2009,12,21,02,03,6.90
2009,12,21,02,04,6.90
2009,12,21,02,05,6.90
2009,12,21,02,06,6.90
2009,12,21,02,07,6.90
2009,12,21,02,08,7.00
2009,12,21,02,09,7.00
2009,12,21,02,10,7.00
2009,12,21,02,11,7.00
2009,12,21,02,12,6.90
2009,12,21,02,13,6.90
2009,12,21,02,14,6.90
2009,12,21,02,15,6.90
2009,12,21,02,16,6.90
2009,12,21,02,17,6.90
2009,12,21,02,18,6.90
2009,12,21,02,19,6.90
2009,12,21,02,20,6.90
2009,12,21,02,21,7.00
2009,12,21,02,22,7.00
2009,12,21,02,23,7.00
2009,12,21,02,24,7.00
2009,12,21,02,25,7.10
2009,12,21,02,26,7.10
2009,12,21,02,27,7.10
2009,12,21,02,28,7.10
2009,12,21,02,29,7.10
2009,12,21,02,30,7.00
2009,12,21,02,31,7.00
2009,12,21,02,32,7.00
2009,12,21,02,33,7.00
2009,12,21,02,34,7.00
2009,12,21,02,35,7.00
2009,12,21,02,36,7.00
2009,12,21,02,37,7.00
2009,12,21,02,38,7.00
2009,12,21,02,39,7.00
2009,12,21,02,40,7.00
2009,12,21,02,41,7.00
2009,12,21,02,42,7.00
2009,12,21,02,43,7.00
2009,12,21,02,44,7.00
2009,12,21,02,45,7.00
2009,12,21,02,46,7.00
2009,12,21,02,47,7.00
2009,12,21,02,48,7.00
2009,12,21,02,49,7.00
2009,12,21,02,50,7.00
2009,12,21,02,51,7.10
2009,12,21,02,52,7.10
2009,12,21,02,53,7.10
2009,12,21,02,54,7.10
2009,12,21,02,55,7.10
2009,12,21,02,56,7.10
2009,12,21,02,57,7.00
2009,12,21,02,58,7.00
2009,12,21,02,59,7.00
2009,12,21,03,00,6.90
2009,12,21,03,01,6.90
2009,12,21,03,02,7.00
2009,12,21,03,03,7.00
2009,12,21,03,04,7.10
2009,12,21,03,05,7.10
2009,12,21,03,06,7.10
2009,12,21,03,07,7.10
2009,12,21,03,08,7.10
2009,12,21,03,09,7.10
2009,12,21,03,10,7.10
2009,12,21,03,11,7.10
2009,12,21,03,12,7.10
2009,12,21,03,13,7.20
2009,12,21,03,14,7.20
2009,12,21,03,15,7.20
2009,12,21,03,16,7.20
2009,12,21,03,17,7.20
2009,12,21,03,18,7.20
2009,12,21,03,19,7.20
2009,12,21,03,20,7.20
2009,12,21,03,21,7.20
2009,12,21,03,22,7.20
2009,12,21,03,23,7.20
2009,12,21,03,24,7.20
2009,12,21,03,25,7.20
2009,12,21,03,26,7.20
2009,12,21,03,27,7.20
2009,12,21,03,28,7.20
2009,12,21,03,29,7.20
2009,12,21,03,30,7.20
2009,12,21,03,31,7.20
2009,12,21,03,32,7.20
2009,12,21,03,33,7.30
2009,12,21,03,34,7.30
2009,12,21,03,35,7.30
2009,12,21,03,36,7.30
2009,12,21,03,37,7.30
2009,12,21,03,38,7.30
2009,12,21,03,39,7.30
2009,12,21,03,40,7.30
2009,12,21,03,41,7.30
2009,12,21,03,42,7.20
2009,12,21,03,43,7.30
2009,12,21,03,44,7.30
2009,12,21,03,45,7.30
2009,12,21,03,46,7.30
2009,12,21,03,47,7.20
2009,12,21,03,48,7.20
2009,12,21,03,49,7.20
2009,12,21,03,50,7.20
2009,12,21,03,51,7.20
2009,12,21,03,52,7.20
2009,12,21,03,53,7.20
2009,12,21,03,54,7.20
2009,12,21,03,55,7.20
2009,12,21,03,56,7.20
2009,12,21,03,57,7.20
2009,12,21,03,58,7.20
2009,12,21,03,59,7.20
2009,12,21,04,00,7.20
2009,12,21,04,01,7.20
2009,12,21,04,02,7.20
2009,12,21,04,03,7.20
2009,12,21,04,04,7.20
2009,12,21,04,05,7.20
2009,12,21,04,06,7.20
2009,12,21,04,07,7.20
2009,12,21,04,08,7.20
2009,12,21,04,09,7.20
2009,12,21,04,10,7.20
2009,12,21,04,11,7.20
2009,12,21,04,12,7.20
2009,12,21,04,13,7.20
2009,12,21,04,14,7.20
2009,12,21,04,15,7.20
2009,12,21,04,16,7.20
2009,12,21,04,17,7.20
2009,12,21,04,18,7.20
2009,12,21,04,19,7.20
2009,12,21,04,20,7.20
2009,12,21,04,21,7.20
2009,12,21,04,22,7.20
2009,12,21,04,23,7.20
2009,12,21,04,24,7.20
2009,12,21,04,25,7.20
2009,12,21,04,26,7.20
2009,12,21,04,27,7.20
2009,12,21,04,28,7.20
2009,12,21,04,29,7.20
2009,12,21,04,30,7.20
2009,12,21,04,31,7.20
2009,12,21,04,32,7.20
2009,12,21,04,33,7.20
2009,12,21,04,34,7.20
2009,12,21,04,35,7.20
2009,12,21,04,36,7.20
2009,12,21,04,37,7.20
2009,12,21,04,38,7.20
2009,12,21,04,39,7.20
2009,12,21,04,40,7.20
2009,12,21,04,41,7.20
2009,12,21,04,42,7.20
2009,12,21,04,43,7.20
2009,12,21,04,44,7.20
2009,12,21,04,45,7.20
2009,12,21,04,46,7.20
2009,12,21,04,47,7.10
2009,12,21,04,48,7.10
2009,12,21,04,49,7.10
2009,12,21,04,50,7.10
2009,12,21,04,51,7.10
2009,12,21,04,52,7.10
2009,12,21,04,53,7.10
2009,12,21,04,54,7.10
2009,12,21,04,55,7.10
2009,12,21,04,56,7.10
2009,12,21,04,57,7.10
2009,12,21,04,58,7.10
2009,12,21,04,59,7.10
2009,12,21,05,00,7.10
2009,12,21,05,01,7.10
2009,12,21,05,02,7.10
2009,12,21,05,03,7.10
2009,12,21,05,04,7.10
2009,12,21,05,05,7.10
2009,12,21,05,06,7.10
2009,12,21,05,07,7.10
2009,12,21,05,08,7.10
2009,12,21,05,09,7.10
2009,12,21,05,10,7.10
2009,12,21,05,11,7.00
2009,12,21,05,12,7.10
2009,12,21,05,13,7.10
2009,12,21,05,14,7.10
2009,12,21,05,15,7.10
2009,12,21,05,16,7.10
2009,12,21,05,17,7.10
2009,12,21,05,18,7.10
2009,12,21,05,19,7.10
2009,12,21,05,20,7.10
2009,12,21,05,21,7.10
2009,12,21,05,22,7.10
2009,12,21,05,23,7.10
2009,12,21,05,24,7.10
2009,12,21,05,25,7.10
2009,12,21,05,26,7.10
2009,12,21,05,27,7.10
2009,12,21,05,28,7.10
2009,12,21,05,29,7.10
2009,12,21,05,30,7.10
2009,12,21,05,31,7.10
2009,12,21,05,32,7.10
2009,12,21,05,33,7.10
2009,12,21,05,34,7.10
2009,12,21,05,35,7.10
2009,12,21,05,36,7.10
2009,12,21,05,37,7.10
2009,12,21,05,38,7.10
2009,12,21,05,39,7.10
2009,12,21,05,40,7.10
2009,12,21,05,41,7.10
2009,12,21,05,42,7.10
2009,12,21,05,43,7.10
2009,12,21,05,44,7.10
2009,12,21,05,45,7.10
2009,12,21,05,46,7.10
2009,12,21,05,47,7.10
2009,12,21,05,48,7.10
2009,12,21,05,49,7.00
2009,12,21,05,50,7.00
2009,12,21,05,51,7.00
2009,12,21,05,52,7.00
2009,12,21,05,53,7.00
2009,12,21,05,54,7.10
2009,12,21,05,55,7.10
2009,12,21,05,56,7.10
2009,12,21,05,57,7.10
2009,12,21,05,58,7.10
2009,12,21,05,59,7.10
2009,12,21,06,00,7.00
2009,12,21,06,01,7.00
2009,12,21,06,02,7.00
2009,12,21,06,03,6.90
2009,12,21,06,04,6.90
2009,12,21,06,05,7.00
2009,12,21,06,06,7.00
2009,12,21,06,07,7.00
2009,12,21,06,08,7.00
2009,12,21,06,09,7.00
2009,12,21,06,10,7.00
2009,12,21,06,11,7.00
2009,12,21,06,12,7.00
2009,12,21,06,13,7.00
2009,12,21,06,14,6.90
2009,12,21,06,15,6.90
2009,12,21,06,16,6.90
2009,12,21,06,17,6.90
2009,12,21,06,18,6.90
2009,12,21,06,19,6.90
2009,12,21,06,20,6.90
2009,12,21,06,21,6.90
2009,12,21,06,22,6.90
2009,12,21,06,23,6.90
2009,12,21,06,24,6.90
2009,12,21,06,25,6.90
2009,12,21,06,26,6.90
2009,12,21,06,27,7.00
2009,12,21,06,28,6.90
2009,12,21,06,29,6.90
2009,12,21,06,32,6.90
2009,12,21,06,33,6.90
2009,12,21,06,34,6.90
2009,12,21,06,35,6.90
2009,12,21,06,36,7.00
2009,12,21,06,37,7.00
2009,12,21,06,38,7.00
2009,12,21,06,39,7.00
2009,12,21,06,40,7.00
2009,12,21,06,41,7.00
2009,12,21,06,42,7.00
2009,12,21,06,43,7.00
2009,12,21,06,44,7.00
2009,12,21,06,45,7.00
2009,12,21,06,46,6.90
2009,12,21,06,47,6.90
2009,12,21,06,48,6.90
2009,12,21,06,49,6.90
2009,12,21,06,50,6.90
2009,12,21,06,51,6.90
2009,12,21,06,52,6.90
2009,12,21,06,53,6.90
2009,12,21,06,54,6.90
2009,12,21,06,55,6.80
2009,12,21,06,56,6.80
2009,12,21,06,57,6.80
2009,12,21,06,58,6.80
2009,12,21,06,59,6.80
2009,12,21,07,00,6.80
2009,12,21,07,01,6.80
2009,12,21,07,02,6.80
2009,12,21,07,03,6.80
2009,12,21,07,04,6.80
2009,12,21,07,05,6.80
2009,12,21,07,06,6.90
2009,12,21,07,07,6.90
2009,12,21,07,08,6.90
2009,12,21,07,09,6.90
2009,12,21,07,10,6.90
2009,12,21,07,11,6.90
2009,12,21,07,12,6.90
2009,12,21,07,13,6.90
2009,12,21,07,14,6.90
2009,12,21,07,15,6.90
2009,12,21,07,16,6.90
2009,12,21,07,17,6.90
2009,12,21,07,18,6.90
2009,12,21,07,19,6.90
2009,12,21,07,20,6.90
2009,12,21,07,21,6.90
2009,12,21,07,22,6.90
2009,12,21,07,23,6.90
2009,12,21,07,24,6.90
2009,12,21,07,25,6.90
2009,12,21,07,26,6.80
2009,12,21,07,27,6.80
2009,12,21,07,28,6.80
2009,12,21,07,29,6.80
2009,12,21,07,30,6.80
2009,12,21,07,31,6.80
2009,12,21,07,32,6.90
2009,12,21,07,33,6.90
2009,12,21,07,34,6.90
2009,12,21,07,35,6.90
2009,12,21,07,36,6.90
2009,12,21,07,37,6.80
2009,12,21,07,38,6.80
2009,12,21,07,39,6.70
2009,12,21,07,40,6.70
2009,12,21,07,41,6.70
2009,12,21,07,42,6.70
2009,12,21,07,43,6.70
2009,12,21,07,44,6.60
2009,12,21,07,45,6.60
2009,12,21,07,46,6.60
2009,12,21,07,47,6.50
2009,12,21,07,48,6.50
2009,12,21,07,49,6.40
2009,12,21,07,50,6.40
2009,12,21,07,51,6.30
2009,12,21,07,52,6.30
2009,12,21,07,53,6.30
2009,12,21,07,54,6.20
2009,12,21,07,55,6.20
2009,12,21,07,56,6.20
2009,12,21,07,57,6.20
2009,12,21,07,58,6.20
2009,12,21,07,59,6.20
2009,12,21,08,00,6.10
2009,12,21,08,01,6.10
2009,12,21,08,02,6.10
2009,12,21,08,03,6.10
2009,12,21,08,04,6.10
2009,12,21,08,05,6.10
2009,12,21,08,06,6.10
2009,12,21,08,07,6.10
2009,12,21,08,08,6.10
2009,12,21,08,09,6.10
2009,12,21,08,10,6.10
2009,12,21,08,11,6.10
2009,12,21,08,12,6.10
2009,12,21,08,13,6.10
2009,12,21,08,14,6.10
2009,12,21,08,15,6.10
2009,12,21,08,16,6.10
2009,12,21,08,17,6.00
2009,12,21,08,18,6.00
2009,12,21,08,19,6.00
2009,12,21,08,20,6.00
2009,12,21,08,21,5.90
2009,12,21,08,22,5.90
2009,12,21,08,23,5.90
2009,12,21,08,24,5.90
2009,12,21,08,25,5.90
2009,12,21,08,26,5.90
2009,12,21,08,27,5.90
2009,12,21,08,28,5.90
2009,12,21,08,29,5.90
2009,12,21,08,30,5.90
2009,12,21,08,31,5.90
2009,12,21,08,32,5.90
2009,12,21,08,33,5.80
2009,12,21,08,34,5.80
2009,12,21,08,35,5.80
2009,12,21,08,36,5.80
2009,12,21,08,37,5.80
2009,12,21,08,38,5.80
2009,12,21,08,39,5.80
2009,12,21,08,40,5.80
2009,12,21,08,41,5.80
2009,12,21,08,42,5.80
2009,12,21,08,43,5.80
2009,12,21,08,44,5.80
2009,12,21,08,45,5.80
2009,12,21,08,46,5.70
2009,12,21,08,47,5.70
2009,12,21,08,48,5.70
2009,12,21,08,49,5.70
2009,12,21,08,50,5.70
2009,12,21,08,51,5.70
2009,12,21,08,52,5.70
2009,12,21,08,53,5.70
2009,12,21,08,54,5.70
2009,12,21,08,55,5.70
2009,12,21,08,56,5.70
2009,12,21,08,57,5.70
2009,12,21,08,58,5.70
2009,12,21,08,59,5.70
2009,12,21,09,00,5.70
2009,12,21,09,01,5.70
2009,12,21,09,02,5.60
2009,12,21,09,03,5.60
2009,12,21,09,04,5.60
2009,12,21,09,05,5.60
2009,12,21,09,06,5.60
2009,12,21,09,07,5.60
2009,12,21,09,08,5.60
2009,12,21,09,09,5.60
2009,12,21,09,10,5.60
2009,12,21,09,11,5.60
2009,12,21,09,12,5.60
2009,12,21,09,13,5.60
2009,12,21,09,14,5.60
2009,12,21,09,15,5.60
2009,12,21,09,16,5.60
2009,12,21,09,17,5.50
2009,12,21,09,18,5.50
2009,12,21,09,19,5.50
2009,12,21,09,20,5.50
2009,12,21,09,21,5.50
2009,12,21,09,22,5.40
2009,12,21,09,23,5.40
2009,12,21,09,24,5.40
2009,12,21,09,25,5.40
2009,12,21,09,26,5.30
2009,12,21,09,27,5.30
2009,12,21,09,28,5.30
2009,12,21,09,29,5.30
2009,12,21,09,30,5.30
2009,12,21,09,31,5.30
2009,12,21,09,32,5.40
2009,12,21,09,33,5.40
2009,12,21,09,35,5.40
2009,12,21,09,36,5.40
2009,12,21,09,37,5.40
2009,12,21,09,38,5.40
2009,12,21,09,39,5.40
2009,12,21,09,40,5.30
2009,12,21,09,41,5.30
2009,12,21,09,42,5.30
2009,12,21,09,43,5.30
2009,12,21,09,44,5.30
2009,12,21,09,45,5.30
2009,12,21,09,46,5.30
2009,12,21,09,47,5.30
2009,12,21,09,48,5.30
2009,12,21,09,49,5.30
2009,12,21,09,50,5.30
2009,12,21,09,51,5.30
2009,12,21,09,52,5.30
2009,12,21,09,53,5.30
2009,12,21,09,54,5.30
2009,12,21,09,55,5.30
2009,12,21,09,56,5.30
2009,12,21,09,57,5.20
2009,12,21,09,58,5.20
2009,12,21,09,59,5.20
2009,12,21,10,00,5.20
2009,12,21,10,01,5.20
2009,12,21,10,02,5.20
2009,12,21,10,03,5.20
2009,12,21,10,04,5.20
2009,12,21,10,05,5.20
2009,12,21,10,06,5.20
2009,12,21,10,07,5.20
2009,12,21,10,08,5.10
2009,12,21,10,09,5.10
2009,12,21,10,10,5.10
2009,12,21,10,11,5.10
2009,12,21,10,12,5.10
2009,12,21,10,13,5.10
2009,12,21,10,14,5.10
2009,12,21,10,15,5.10
2009,12,21,10,18,5.10
2009,12,21,10,19,5.10
2009,12,21,10,20,5.10
2009,12,21,10,21,5.00
2009,12,21,10,22,5.00
2009,12,21,10,23,5.00
2009,12,21,10,24,5.00
2009,12,21,10,25,4.90
2009,12,21,10,26,4.90
2009,12,21,10,27,4.90
2009,12,21,10,28,4.90
2009,12,21,10,29,4.90
2009,12,21,10,30,4.90
2009,12,21,10,31,4.90
2009,12,21,10,32,4.90
2009,12,21,10,33,4.80
2009,12,21,10,34,4.80
2009,12,21,10,35,4.80
2009,12,21,10,36,4.80
2009,12,21,10,37,4.80
2009,12,21,10,38,4.80
2009,12,21,10,39,4.80
2009,12,21,10,40,4.80
2009,12,21,10,41,4.80
2009,12,21,10,42,4.70
2009,12,21,10,43,4.70
2009,12,21,10,44,4.70
2009,12,21,10,45,4.70
2009,12,21,10,46,4.70
2009,12,21,10,47,4.70
2009,12,21,10,48,4.70
2009,12,21,10,49,4.60
2009,12,21,10,50,4.60
2009,12,21,10,51,4.60
2009,12,21,10,52,4.60
2009,12,21,10,53,4.60
2009,12,21,10,54,4.50
2009,12,21,10,55,4.50
2009,12,21,10,56,4.50
2009,12,21,10,57,4.40
2009,12,21,10,58,4.40
2009,12,21,10,59,4.40
2009,12,21,11,00,4.40
2009,12,21,11,01,4.30
2009,12,21,11,02,4.30
2009,12,21,11,03,4.30
2009,12,21,11,04,4.30
2009,12,21,11,05,4.30
2009,12,21,11,06,4.30
2009,12,21,11,07,4.30
2009,12,21,11,08,4.30
2009,12,21,11,09,4.30
2009,12,21,11,10,4.30
2009,12,21,11,11,4.30
2009,12,21,11,12,4.30
2009,12,21,11,13,4.30
2009,12,21,11,14,4.30
2009,12,21,11,15,4.30
2009,12,21,11,16,4.30
2009,12,21,11,17,4.30
2009,12,21,11,18,4.30
2009,12,21,11,19,4.30
2009,12,21,11,20,4.30
2009,12,21,11,21,4.30
2009,12,21,11,22,4.30
2009,12,21,11,23,4.30
2009,12,21,11,24,4.40
2009,12,21,11,25,4.40
2009,12,21,11,26,4.40
2009,12,21,11,27,4.40
2009,12,21,11,28,4.40
2009,12,21,11,29,4.40
2009,12,21,11,30,4.50
2009,12,21,11,31,4.50
2009,12,21,11,32,4.50
2009,12,21,11,33,4.50
2009,12,21,11,34,4.50
2009,12,21,11,35,4.50
2009,12,21,11,36,4.60
2009,12,21,11,37,4.60
2009,12,21,11,38,4.60
2009,12,21,11,39,4.60
2009,12,21,11,40,4.60
2009,12,21,11,41,4.60
2009,12,21,11,42,4.60
2009,12,21,11,43,4.60
2009,12,21,11,44,4.60
2009,12,21,11,45,4.60
2009,12,21,11,46,4.60
2009,12,21,11,47,4.60
2009,12,21,11,48,4.60
2009,12,21,11,49,4.60
2009,12,21,11,50,4.60
2009,12,21,11,51,4.60
2009,12,21,11,52,4.60
2009,12,21,11,53,4.60
2009,12,21,11,54,4.60
2009,12,21,11,55,4.60
2009,12,21,11,56,4.60
2009,12,21,11,57,4.60
2009,12,21,11,58,4.60
2009,12,21,11,59,4.60
2009,12,21,12,00,4.60
2009,12,21,12,01,4.60
2009,12,21,12,02,4.60
2009,12,21,12,03,4.50
2009,12,21,12,04,4.50
2009,12,21,12,05,4.50
2009,12,21,12,06,4.50
2009,12,21,12,07,4.50
2009,12,21,12,08,4.50
2009,12,21,12,09,4.50
2009,12,21,12,10,4.50
2009,12,21,12,11,4.60
2009,12,21,12,12,4.50
2009,12,21,12,13,4.60
2009,12,21,12,14,4.60
2009,12,21,12,15,4.60
2009,12,21,12,16,4.60
2009,12,21,12,17,4.60
2009,12,21,12,18,4.70
2009,12,21,12,19,4.60
2009,12,21,12,20,4.70
2009,12,21,12,21,4.70
2009,12,21,12,22,4.70
2009,12,21,12,23,4.70
2009,12,21,12,24,4.70
2009,12,21,12,25,4.70
2009,12,21,12,26,4.70
2009,12,21,12,27,4.60
2009,12,21,12,28,4.60
2009,12,21,12,29,4.60
2009,12,21,12,30,4.60
2009,12,21,12,31,4.60
2009,12,21,12,32,4.60
2009,12,21,12,33,4.60
2009,12,21,12,34,4.60
2009,12,21,12,35,4.60
2009,12,21,12,36,4.60
2009,12,21,12,37,4.50
2009,12,21,12,38,4.50
2009,12,21,12,39,4.50
2009,12,21,12,40,4.50
2009,12,21,12,41,4.50
2009,12,21,12,42,4.50
2009,12,21,12,43,4.50
2009,12,21,12,44,4.50
2009,12,21,12,45,4.50
2009,12,21,12,46,4.50
2009,12,21,12,47,4.50
2009,12,21,12,48,4.50
2009,12,21,12,49,4.40
2009,12,21,12,50,4.40
2009,12,21,12,51,4.40
2009,12,21,12,52,4.40
2009,12,21,12,53,4.40
2009,12,21,12,54,4.40
2009,12,21,12,55,4.40
2009,12,21,12,56,4.40
2009,12,21,12,57,4.40
2009,12,21,12,58,4.40
2009,12,21,12,59,4.40
2009,12,21,13,00,4.40
2009,12,21,13,01,4.40
2009,12,21,13,02,4.50
2009,12,21,13,03,4.50
2009,12,21,13,04,4.50
2009,12,21,13,05,4.50
2009,12,21,13,06,4.50
2009,12,21,13,07,4.50
2009,12,21,13,08,4.60
2009,12,21,13,09,4.60
2009,12,21,13,10,4.60
2009,12,21,13,11,4.60
2009,12,21,13,12,4.60
2009,12,21,13,13,4.60
2009,12,21,13,14,4.60
2009,12,21,13,15,4.70
2009,12,21,13,16,4.70
2009,12,21,13,17,4.70
2009,12,21,13,18,4.70
2009,12,21,13,19,4.70
2009,12,21,13,20,4.70
2009,12,21,13,21,4.70
2009,12,21,13,22,4.70
2009,12,21,13,23,4.70
2009,12,21,13,24,4.70
2009,12,21,13,25,4.70
2009,12,21,13,26,4.70
2009,12,21,13,27,4.70
2009,12,21,13,28,4.70
2009,12,21,13,29,4.70
2009,12,21,13,30,4.70
2009,12,21,13,31,4.60
2009,12,21,13,32,4.60
2009,12,21,13,33,4.60
2009,12,21,13,34,4.60
2009,12,21,13,35,4.60
2009,12,21,13,36,4.60
2009,12,21,13,37,4.60
2009,12,21,13,38,4.60
2009,12,21,13,39,4.50
2009,12,21,13,40,4.50
2009,12,21,13,41,4.50
2009,12,21,13,42,4.40
2009,12,21,13,43,4.40
2009,12,21,13,44,4.40
2009,12,21,13,45,4.40
2009,12,21,13,46,4.40
2009,12,21,13,47,4.40
2009,12,21,13,48,4.40
2009,12,21,13,49,4.40
2009,12,21,13,50,4.40
2009,12,21,13,51,4.30
2009,12,21,13,52,4.30
2009,12,21,13,53,4.30
2009,12,21,13,54,4.30
2009,12,21,13,55,4.30
2009,12,21,13,56,4.30
2009,12,21,13,57,4.30
2009,12,21,13,58,4.30
2009,12,21,13,59,4.30
2009,12,21,14,00,4.30
2009,12,21,14,01,4.30
2009,12,21,14,02,4.30
2009,12,21,14,03,4.30
2009,12,21,14,04,4.30
2009,12,21,14,05,4.30
2009,12,21,14,06,4.30
2009,12,21,14,07,4.30
2009,12,21,14,08,4.20
2009,12,21,14,09,4.20
2009,12,21,14,10,4.20
2009,12,21,14,11,4.20
2009,12,21,14,12,4.20
2009,12,21,14,13,4.10
2009,12,21,14,14,4.10
2009,12,21,14,15,4.10
2009,12,21,14,16,4.00
2009,12,21,14,17,4.00
2009,12,21,14,18,3.90
2009,12,21,14,19,3.90
2009,12,21,14,20,3.80
2009,12,21,14,21,3.80
2009,12,21,14,22,3.80
2009,12,21,14,23,3.80
2009,12,21,14,24,3.80
2009,12,21,14,25,3.70
2009,12,21,14,26,3.70
2009,12,21,14,27,3.70
2009,12,21,14,28,3.60
2009,12,21,14,29,3.60
2009,12,21,14,30,3.50
2009,12,21,14,31,3.40
2009,12,21,14,32,3.40
2009,12,21,14,33,3.30
2009,12,21,14,34,3.30
2009,12,21,14,35,3.20
2009,12,21,14,36,3.20
2009,12,21,14,37,3.20
2009,12,21,14,38,3.10
2009,12,21,14,39,3.10
2009,12,21,14,40,3.10
2009,12,21,14,41,3.00
2009,12,21,14,42,3.00
2009,12,21,14,43,3.00
2009,12,21,14,44,3.00
2009,12,21,14,45,3.00
2009,12,21,14,46,3.00
2009,12,21,14,47,3.00
2009,12,21,14,48,3.00
2009,12,21,14,49,2.90
2009,12,21,14,50,2.90
2009,12,21,14,51,2.90
2009,12,21,14,52,2.90
2009,12,21,14,53,2.90
2009,12,21,14,54,2.90
2009,12,21,14,55,2.90
2009,12,21,14,56,2.90
2009,12,21,14,57,2.90
2009,12,21,14,58,2.90
2009,12,21,14,59,2.90
2009,12,21,15,00,2.90
2009,12,21,15,01,2.90
2009,12,21,15,02,2.90
2009,12,21,15,03,2.90
2009,12,21,15,04,2.90
2009,12,21,15,05,2.90
2009,12,21,15,06,2.90
2009,12,21,15,07,2.90
2009,12,21,15,08,2.90
2009,12,21,15,09,2.90
2009,12,21,15,10,2.90
2009,12,21,15,11,3.00
2009,12,21,15,12,3.00
2009,12,21,15,13,2.90
2009,12,21,15,14,2.90
2009,12,21,15,15,2.90
2009,12,21,15,16,2.90
2009,12,21,15,17,2.90
2009,12,21,15,18,2.90
2009,12,21,15,19,2.80
2009,12,21,15,20,2.80
2009,12,21,15,21,2.80
2009,12,21,15,22,2.80
2009,12,21,15,23,2.80
2009,12,21,15,24,2.80
2009,12,21,15,25,2.80
2009,12,21,15,26,2.80
2009,12,21,15,27,2.80
2009,12,21,15,28,2.80
2009,12,21,15,29,2.80
2009,12,21,15,30,2.80
2009,12,21,15,31,2.80
2009,12,21,15,32,2.80
2009,12,21,15,33,2.70
2009,12,21,15,34,2.70
2009,12,21,15,35,2.70
2009,12,21,15,36,2.70
2009,12,21,15,37,2.70
2009,12,21,15,38,2.70
2009,12,21,15,39,2.70
2009,12,21,15,40,2.70
2009,12,21,15,41,2.70
2009,12,21,15,42,2.70
2009,12,21,15,43,2.70
2009,12,21,15,44,2.70
2009,12,21,15,45,2.70
2009,12,21,15,46,2.70
2009,12,21,15,47,2.70
2009,12,21,15,48,2.70
2009,12,21,15,49,2.70
2009,12,21,15,50,2.70
2009,12,21,15,51,2.70
2009,12,21,15,52,2.70
2009,12,21,15,53,2.60
2009,12,21,15,54,2.60
2009,12,21,15,55,2.60
2009,12,21,15,56,2.60
2009,12,21,15,57,2.60
2009,12,21,15,58,2.60
2009,12,21,15,59,2.70
2009,12,21,16,00,2.70
2009,12,21,16,01,2.70
2009,12,21,16,02,2.70
2009,12,21,16,03,2.70
2009,12,21,16,04,2.80
2009,12,21,16,05,2.80
2009,12,21,16,06,2.70
2009,12,21,16,07,2.70
2009,12,21,16,08,2.70
2009,12,21,16,09,2.70
2009,12,21,16,10,2.60
2009,12,21,16,11,2.60
2009,12,21,16,12,2.60
2009,12,21,16,13,2.60
2009,12,21,16,14,2.60
2009,12,21,16,15,2.70
2009,12,21,16,16,2.70
2009,12,21,16,17,2.70
2009,12,21,16,18,2.70
2009,12,21,16,19,2.70
2009,12,21,16,20,2.70
2009,12,21,16,21,2.70
2009,12,21,16,22,2.70
2009,12,21,16,23,2.70
2009,12,21,16,24,2.70
2009,12,21,16,25,2.70
2009,12,21,16,26,2.70
2009,12,21,16,27,2.70
2009,12,21,16,28,2.70
2009,12,21,16,29,2.70
2009,12,21,16,30,2.70
2009,12,21,16,31,2.70
2009,12,21,16,32,2.60
2009,12,21,16,33,2.60
2009,12,21,16,34,2.60
2009,12,21,16,35,2.60
2009,12,21,16,36,2.60
2009,12,21,16,37,2.60
2009,12,21,16,38,2.60
2009,12,21,16,39,2.60
2009,12,21,16,40,2.60
2009,12,21,16,41,2.50
2009,12,21,16,42,2.50
2009,12,21,16,43,2.50
2009,12,21,16,44,2.40
2009,12,21,16,45,2.40
2009,12,21,16,46,2.40
2009,12,21,16,47,2.40
2009,12,21,16,48,2.40
2009,12,21,16,49,2.40
2009,12,21,16,50,2.40
2009,12,21,16,51,2.30
2009,12,21,16,52,2.30
2009,12,21,16,53,2.30
2009,12,21,16,54,2.30
2009,12,21,16,55,2.30
2009,12,21,16,56,2.30
2009,12,21,16,57,2.30
2009,12,21,16,58,2.30
2009,12,21,16,59,2.30
2009,12,21,17,00,2.30
2009,12,21,17,01,2.30
2009,12,21,17,02,2.30
2009,12,21,17,03,2.30
2009,12,21,17,04,2.30
2009,12,21,17,05,2.30
2009,12,21,17,06,2.20
2009,12,21,17,07,2.20
2009,12,21,17,08,2.20
2009,12,21,17,09,2.30
2009,12,21,17,10,2.30
2009,12,21,17,11,2.30
2009,12,21,17,12,2.30
2009,12,21,17,13,2.20
2009,12,21,17,14,2.20
2009,12,21,17,15,2.20
2009,12,21,17,16,2.20
2009,12,21,17,17,2.20
2009,12,21,17,18,2.20
2009,12,21,17,19,2.30
2009,12,21,17,20,2.30
2009,12,21,17,21,2.30
2009,12,21,17,22,2.30
2009,12,21,17,23,2.30
2009,12,21,17,24,2.30
2009,12,21,17,25,2.30
2009,12,21,17,26,2.30
2009,12,21,17,27,2.30
2009,12,21,17,28,2.30
2009,12,21,17,29,2.30
2009,12,21,17,30,2.30
2009,12,21,17,31,2.30
2009,12,21,17,32,2.30
2009,12,21,17,33,2.30
2009,12,21,17,34,2.40
2009,12,21,17,35,2.40
2009,12,21,17,36,2.40
2009,12,21,17,37,2.40
2009,12,21,17,38,2.40
2009,12,21,17,39,2.40
2009,12,21,17,40,2.40
2009,12,21,17,41,2.40
2009,12,21,17,42,2.40
2009,12,21,17,43,2.40
2009,12,21,17,44,2.40
2009,12,21,17,45,2.40
2009,12,21,17,46,2.40
2009,12,21,17,47,2.50
2009,12,21,17,48,2.50
2009,12,21,17,49,2.50
2009,12,21,17,50,2.50
2009,12,21,17,51,2.50
2009,12,21,17,52,2.50
2009,12,21,17,53,2.50
2009,12,21,17,54,2.50
2009,12,21,17,55,2.50
2009,12,21,17,56,2.50
2009,12,21,17,57,2.50
2009,12,21,17,58,2.50
2009,12,21,17,59,2.50
2009,12,21,18,00,2.50
2009,12,21,18,01,2.50
2009,12,21,18,02,2.50
2009,12,21,18,03,2.50
2009,12,21,18,04,2.50
2009,12,21,18,05,2.50
2009,12,21,18,06,2.50
2009,12,21,18,07,2.40
2009,12,21,18,08,2.40
2009,12,21,18,09,2.40
2009,12,21,18,10,2.40
2009,12,21,18,11,2.40